Location: Casilda
(33.0440°S, 61.1680°W)
Time: 13:36:44
(UTC-03:00)

ISS - Pass Details

Date: 20 January 2025
Orbit: 415 x 418 km, 51.6° (Epoch: 13 January)

Event Time Altitude Azimuth Distance (km) Brightness Sun altitude
Exits shadow 03:05:22 - 95° (E) 2,002 0.1 -30.8°
Enters shadow 04:02:13 -67° 312° (NW) 12,203 3.6 -23.7°
Maximum altitude 04:38:45 64° 223° (SW) 473 -3.6 -18.1°
